Showing default

KUIPER-00452, 68946

Orbit data source: Space-Track

KUIPER-00452, 68946 is a payload satellite owned by Kuiper Systems (US) in LEO that was launched on Thu, 30 Apr 2026 UTC via an ARIANE 64 launch vehicle from the French Guiana (FRGUI). Payload-class satellites include a variety of spacecraft equipped with specific instruments for various scientific and technological missions. These include communications satellites like Starlink; space stations such as the ISS; scientific satellites like the Hubble; Earth observation satellites from companies like Planet Labs, Umbra, and HawkEye 360; GPS; miniature CubeSats for education and research; and military/defense satellites.

Loading next visibility...
Identifier
68946, 2026-098AD
Orbit
LEO
Country
Flag of USUS
Related business
Manufacturer
Kuiper Systems
Mission
Operational Commercial Communications
Bus & Motor
KUIPER, Unknown motor
Mass
~490 kg wet, ~490 kg dry
Launch date (UTC)
2026-04-30 (2 months ago)
Launch vehicle
ARIANE 64
Launch site
French Guiana (FRGUI)
Object type
Payload
Rocket body
Debris
Shape & HBR
Box + 2 Pan, 3.4 m
Radar Cross Section
2.326 m², Large (>1 m²)

Expand to show TLE details & history
Last TLE update: 19 hours ago

TLE from 19 hours ago
0 KUIPER-00452
1 68946U 26098AD  26192.54005710  .00014008  00000-0  40267-3 0  9995
2 68946  51.8742 309.9733 0002618 254.9286 105.1410 15.36073001 11098
Epoch: 2026-07-11T12:57Z
TLE epoch observation values (Epoch: 2026-07-11T12:57:40.933Z)
Latitude
-0.00007°
Longitude
-173.89912°
Altitude
458.966 km
Speed
7.638 km/s
True Right ascension
20h 39m 53s
True Declination
0° 00' 00"
Sunlit
Object was in full shadow at epoch
Visualization orbit readout
Latitude
Unknown
Longitude
Unknown
Altitude
Unknown
Speed
Unknown
Apparent Right ascension
Unknown
Apparent Declination
Unknown
Sunlit
N/A
Visualization observer readout
Local Sidereal Time
20:36:48
Azimuth
Unknown
Elevation
Unknown
Doppler factor
Unknown
Orbital elements
Apogee altitude
459.992 km
Perigee altitude
456.412 km
Semi-major axis
6,836.339 km
Eccentricity
0.00026
Inclination
51.8742°
RAAN
309.9733°
Arg. of periapsis
254.9286°
True anomaly
105.16996°
Mean anomaly
105.141°
Eccentric anomaly
105.15548°
Mean motion
3.83979 °/min
Orbital period
93.76 mins
BSTAR
0.00040267
Loading maneuver chart data...
Computing Atmospheric mass density...
Loading historical data...
Loading historical data...
Loading historical data...
Loading historical data...
Loading historical data...
Loading historical data...
Loading historical data...

Documentation

Showing up to 5 results
|